Time,TemperatureF,DewpointF,PressureIn,WindDirection,WindDirectionDegrees,WindSpeedMPH,WindSpeedGustMPH,Humidity,HourlyPrecipIn,Conditions,Clouds,dailyrainin,SoftwareType,DateUTC
2013-08-07 00:01:00,71.0,69.0,29.91,South,175,0.0,0.0,95,0.00,,,0.00,,2013-08-07 04:01:00,
2013-08-07 00:11:00,71.0,69.0,29.91,South,175,0.0,0.0,95,0.00,,,0.00,,2013-08-07 04:11:00,
2013-08-07 00:21:00,71.0,70.0,29.91,South,175,0.0,0.0,96,0.00,,,0.00,,2013-08-07 04:21:00,
2013-08-07 00:33:00,71.0,70.0,29.91,South,175,0.0,0.0,96,0.00,,,0.00,,2013-08-07 04:33:00,
2013-08-07 00:43:00,70.0,69.0,29.91,South,175,0.0,0.0,96,0.00,,,0.00,,2013-08-07 04:43:00,
2013-08-07 00:52:00,70.0,69.0,29.91,South,175,0.0,0.0,96,0.00,,,0.00,,2013-08-07 04:52:00,
2013-08-07 01:02:00,71.0,70.0,29.91,South,175,0.0,0.0,96,0.00,,,0.00,,2013-08-07 05:02:00,
2013-08-07 01:11:00,70.0,69.0,29.90,South,175,0.0,0.0,96,0.00,,,0.00,,2013-08-07 05:11:00,
2013-08-07 01:22:00,70.0,69.0,29.90,South,175,0.0,0.0,97,0.00,,,0.00,,2013-08-07 05:22:00,
2013-08-07 01:32:00,70.0,69.0,29.90,South,175,0.0,0.0,97,0.00,,,0.00,,2013-08-07 05:32:00,
2013-08-07 01:43:00,70.0,69.0,29.90,South,175,0.0,0.0,97,0.00,,,0.00,,2013-08-07 05:43:00,
2013-08-07 01:52:00,70.0,69.0,29.89,South,175,0.0,0.0,97,0.00,,,0.00,,2013-08-07 05:52:00,
2013-08-07 02:02:00,70.0,69.0,29.89,South,175,0.0,0.0,97,0.00,,,0.00,,2013-08-07 06:02:00,
2013-08-07 02:11:00,70.0,69.0,29.90,South,175,0.0,0.0,97,0.00,,,0.00,,2013-08-07 06:11:00,
2013-08-07 02:22:00,71.0,70.0,29.90,South,175,0.0,0.0,98,0.00,,,0.00,,2013-08-07 06:22:00,
2013-08-07 02:32:00,71.0,70.0,29.90,South,175,0.0,0.0,98,0.00,,,0.00,,2013-08-07 06:32:00,
2013-08-07 02:43:00,71.0,70.0,29.89,South,175,0.0,0.0,97,0.00,,,0.00,,2013-08-07 06:43:00,
2013-08-07 02:52:00,71.0,70.0,29.89,South,175,0.0,0.0,97,0.00,,,0.00,,2013-08-07 06:52:00,
2013-08-07 03:01:00,71.0,70.0,29.89,South,175,0.0,0.0,97,0.00,,,0.00,,2013-08-07 07:01:00,
2013-08-07 03:12:00,70.0,69.0,29.88,South,175,0.0,0.0,97,0.00,,,0.00,,2013-08-07 07:12:00,
2013-08-07 03:22:00,70.0,69.0,29.89,South,175,0.0,0.0,97,0.00,,,0.00,,2013-08-07 07:22:00,
2013-08-07 03:33:00,70.0,69.0,29.88,South,175,0.0,1.0,97,0.00,,,0.00,,2013-08-07 07:33:00,
2013-08-07 03:43:00,70.0,69.0,29.88,South,175,0.0,1.0,97,0.00,,,0.00,,2013-08-07 07:43:00,
2013-08-07 03:52:00,70.0,69.0,29.88,South,175,0.0,0.0,98,0.00,,,0.00,,2013-08-07 07:52:00,
2013-08-07 04:01:00,70.0,69.0,29.89,South,175,0.0,0.0,98,0.00,,,0.00,,2013-08-07 08:01:00,
2013-08-07 04:11:00,71.0,70.0,29.88,South,175,0.0,0.0,98,0.00,,,0.00,,2013-08-07 08:11:00,
2013-08-07 04:22:00,71.0,70.0,29.87,South,175,0.0,0.0,98,0.00,,,0.00,,2013-08-07 08:22:00,
2013-08-07 04:32:00,70.0,69.0,29.88,South,175,0.0,0.0,98,0.00,,,0.00,,2013-08-07 08:32:00,
2013-08-07 04:44:00,70.0,69.0,29.88,South,175,0.0,0.0,98,0.00,,,0.00,,2013-08-07 08:44:00,
2013-08-07 04:52:00,70.0,69.0,29.86,South,175,0.0,0.0,98,0.00,,,0.00,,2013-08-07 08:52:00,
2013-08-07 05:02:00,70.0,69.0,29.85,South,175,0.0,0.0,98,0.00,,,0.00,,2013-08-07 09:02:00,
2013-08-07 05:11:00,70.0,69.0,29.85,South,175,0.0,1.0,98,0.00,,,0.00,,2013-08-07 09:11:00,
2013-08-07 05:22:00,70.0,69.0,29.85,South,175,0.0,1.0,98,0.00,,,0.00,,2013-08-07 09:22:00,
2013-08-07 05:32:00,70.0,69.0,29.86,South,175,0.0,1.0,98,0.00,,,0.00,,2013-08-07 09:32:00,
2013-08-07 05:43:00,70.0,69.0,29.86,South,175,0.0,0.0,98,0.00,,,0.00,,2013-08-07 09:43:00,
2013-08-07 05:54:00,70.0,69.0,29.86,South,175,0.0,0.0,98,0.00,,,0.00,,2013-08-07 09:54:00,
2013-08-07 06:01:00,70.0,69.0,29.86,South,175,0.0,0.0,98,0.00,,,0.00,,2013-08-07 10:01:00,
2013-08-07 06:11:00,70.0,69.0,29.86,South,175,0.0,0.0,98,0.00,,,0.00,,2013-08-07 10:11:00,
2013-08-07 06:22:00,70.0,69.0,29.85,South,175,0.0,0.0,98,0.00,,,0.00,,2013-08-07 10:22:00,
2013-08-07 06:32:00,69.0,68.0,29.86,South,175,0.0,0.0,98,0.00,,,0.00,,2013-08-07 10:32:00,
2013-08-07 06:43:00,69.0,68.0,29.86,South,175,0.0,0.0,98,0.00,,,0.00,,2013-08-07 10:43:00,
2013-08-07 06:52:00,69.0,68.0,29.87,South,175,0.0,0.0,98,0.00,,,0.00,,2013-08-07 10:52:00,
2013-08-07 07:01:00,69.0,68.0,29.87,South,175,0.0,0.0,98,0.00,,,0.00,,2013-08-07 11:01:00,
2013-08-07 07:11:00,69.0,68.0,29.86,South,175,0.0,0.0,98,0.00,,,0.00,,2013-08-07 11:11:00,
2013-08-07 07:22:00,69.0,68.0,29.87,South,175,0.0,0.0,98,0.00,,,0.00,,2013-08-07 11:22:00,
2013-08-07 07:32:00,69.0,68.0,29.86,South,175,0.0,0.0,98,0.00,,,0.00,,2013-08-07 11:32:00,
2013-08-07 07:43:00,69.0,68.0,29.86,South,175,0.0,0.0,98,0.00,,,0.00,,2013-08-07 11:43:00,
2013-08-07 07:52:00,69.0,69.0,29.87,South,175,0.0,0.0,99,0.00,,,0.00,,2013-08-07 11:52:00,
2013-08-07 08:02:00,69.0,69.0,29.88,South,184,0.0,1.0,99,0.00,,,0.00,,2013-08-07 12:02:00,
2013-08-07 08:11:00,70.0,70.0,29.87,South,183,0.0,1.0,99,0.00,,,0.00,,2013-08-07 12:11:00,
2013-08-07 08:22:00,70.0,70.0,29.88,South,184,0.0,1.0,99,0.00,,,0.00,,2013-08-07 12:22:00,
2013-08-07 08:32:00,70.0,70.0,29.87,South,183,0.0,0.0,99,0.00,,,0.00,,2013-08-07 12:32:00,
2013-08-07 08:43:00,71.0,71.0,29.87,South,184,0.0,0.0,99,0.00,,,0.00,,2013-08-07 12:43:00,
2013-08-07 08:52:00,71.0,71.0,29.88,South,184,0.0,1.0,99,0.00,,,0.00,,2013-08-07 12:52:00,
2013-08-07 09:02:00,71.0,71.0,29.88,South,184,0.0,1.0,99,0.00,,,0.00,,2013-08-07 13:02:00,
2013-08-07 09:11:00,72.0,72.0,29.88,ESE,105,0.0,3.0,99,0.00,,,0.00,,2013-08-07 13:11:00,
2013-08-07 09:22:00,72.0,72.0,29.88,North,355,0.0,2.0,99,0.00,,,0.00,,2013-08-07 13:22:00,
2013-08-07 09:32:00,72.0,72.0,29.88,East,82,0.0,2.0,99,0.00,,,0.00,,2013-08-07 13:32:00,
2013-08-07 09:44:00,72.0,72.0,29.89,East,82,0.0,1.0,99,0.00,,,0.00,,2013-08-07 13:44:00,
2013-08-07 09:53:00,72.0,72.0,29.89,East,82,0.0,1.0,99,0.00,,,0.00,,2013-08-07 13:53:00,
2013-08-07 10:02:00,73.0,73.0,29.89,East,82,0.0,1.0,99,0.00,,,0.00,,2013-08-07 14:02:00,
2013-08-07 10:11:00,73.0,73.0,29.89,East,82,0.0,1.0,99,0.00,,,0.00,,2013-08-07 14:11:00,
2013-08-07 10:22:00,73.0,73.0,29.89,East,82,0.0,0.0,99,0.00,,,0.00,,2013-08-07 14:22:00,
2013-08-07 10:33:00,74.0,73.0,29.89,East,82,0.0,1.0,98,0.00,,,0.00,,2013-08-07 14:33:00,
2013-08-07 10:43:00,74.0,73.0,29.89,East,82,0.0,0.0,98,0.00,,,0.00,,2013-08-07 14:43:00,
2013-08-07 10:52:00,74.0,73.0,29.89,East,82,0.0,1.0,98,0.00,,,0.00,,2013-08-07 14:52:00,
2013-08-07 11:02:00,75.0,74.0,29.89,East,82,0.0,1.0,97,0.00,,,0.00,,2013-08-07 15:02:00,
2013-08-07 11:12:00,75.0,74.0,29.89,East,82,0.0,1.0,97,0.00,,,0.00,,2013-08-07 15:12:00,
2013-08-07 11:22:00,75.0,74.0,29.90,East,82,0.0,2.0,96,0.00,,,0.00,,2013-08-07 15:22:00,
2013-08-07 11:33:00,75.0,74.0,29.90,East,82,0.0,2.0,96,0.00,,,0.00,,2013-08-07 15:33:00,
2013-08-07 11:43:00,75.0,73.0,29.90,East,82,0.0,1.0,95,0.00,,,0.00,,2013-08-07 15:43:00,
2013-08-07 11:53:00,75.0,73.0,29.90,East,81,0.0,1.0,95,0.00,,,0.00,,2013-08-07 15:53:00,
2013-08-07 12:02:00,75.0,73.0,29.90,East,81,0.0,1.0,94,0.00,,,0.00,,2013-08-07 16:02:00,
2013-08-07 12:11:00,76.0,74.0,29.90,East,80,0.0,1.0,94,0.00,,,0.00,,2013-08-07 16:11:00,
2013-08-07 12:22:00,76.0,74.0,29.90,ENE,60,0.0,2.0,94,0.00,,,0.00,,2013-08-07 16:22:00,
2013-08-07 12:33:00,76.0,74.0,29.90,WSW,245,0.0,2.0,95,0.00,,,0.00,,2013-08-07 16:33:00,
2013-08-07 12:43:00,77.0,75.0,29.90,WSW,252,0.0,1.0,94,0.00,,,0.00,,2013-08-07 16:43:00,
2013-08-07 12:53:00,77.0,75.0,29.90,WSW,245,0.0,3.0,93,0.00,,,0.00,,2013-08-07 16:53:00,
2013-08-07 13:01:00,77.0,74.0,29.90,WSW,245,0.0,2.0,91,0.00,,,0.00,,2013-08-07 17:01:00,
2013-08-07 13:11:00,78.0,75.0,29.90,South,184,0.0,2.0,91,0.00,,,0.00,,2013-08-07 17:11:00,
2013-08-07 13:22:00,79.0,76.0,29.89,South,169,0.0,2.0,91,0.00,,,0.00,,2013-08-07 17:22:00,
2013-08-07 13:33:00,79.0,75.0,29.89,North,11,0.0,3.0,89,0.00,,,0.00,,2013-08-07 17:33:00,
2013-08-07 13:43:00,79.0,75.0,29.89,NW,323,0.0,3.0,89,0.00,,,0.00,,2013-08-07 17:43:00,
2013-08-07 13:52:00,80.0,76.0,29.88,WNW,299,0.0,3.0,88,0.00,,,0.00,,2013-08-07 17:52:00,
2013-08-07 14:02:00,80.0,76.0,29.88,NW,318,0.0,2.0,88,0.00,,,0.00,,2013-08-07 18:02:00,
2013-08-07 14:11:00,81.0,77.0,29.87,NNW,347,0.0,2.0,87,0.00,,,0.00,,2013-08-07 18:11:00,
2013-08-07 14:22:00,81.0,76.0,29.87,NNW,347,0.0,1.0,86,0.00,,,0.00,,2013-08-07 18:22:00,
2013-08-07 14:32:00,82.0,77.0,29.87,NNW,347,0.0,2.0,86,0.00,,,0.00,,2013-08-07 18:32:00,
2013-08-07 14:43:00,82.0,76.0,29.87,NNW,347,0.0,2.0,83,0.00,,,0.00,,2013-08-07 18:43:00,
2013-08-07 14:52:00,82.0,77.0,29.87,NNW,347,0.0,2.0,84,0.00,,,0.00,,2013-08-07 18:52:00,
2013-08-07 15:01:00,81.0,76.0,29.87,NNW,346,0.0,2.0,86,0.00,,,0.00,,2013-08-07 19:01:00,
2013-08-07 15:11:00,81.0,76.0,29.87,NNW,347,0.0,1.0,85,0.00,,,0.00,,2013-08-07 19:11:00,
2013-08-07 15:22:00,82.0,77.0,29.86,NNW,340,0.0,1.0,85,0.00,,,0.00,,2013-08-07 19:22:00,
2013-08-07 15:32:00,83.0,77.0,29.86,NNW,340,0.0,1.0,83,0.00,,,0.00,,2013-08-07 19:32:00,
2013-08-07 15:44:00,82.0,76.0,29.85,NNW,340,0.0,1.0,83,0.00,,,0.00,,2013-08-07 19:44:00,
2013-08-07 15:52:00,82.0,77.0,29.85,NNW,340,0.0,2.0,84,0.00,,,0.00,,2013-08-07 19:52:00,
2013-08-07 16:02:00,82.0,77.0,29.85,NNW,340,0.0,1.0,85,0.00,,,0.00,,2013-08-07 20:02:00,
2013-08-07 16:11:00,82.0,77.0,29.85,NNW,340,0.0,1.0,85,0.00,,,0.00,,2013-08-07 20:11:00,
2013-08-07 16:22:00,82.0,77.0,29.85,NNW,340,0.0,1.0,85,0.00,,,0.00,,2013-08-07 20:22:00,
2013-08-07 16:32:00,82.0,77.0,29.85,NNW,340,0.0,1.0,85,0.00,,,0.00,,2013-08-07 20:32:00,
2013-08-07 16:43:00,82.0,77.0,29.85,NNW,340,0.0,1.0,85,0.00,,,0.00,,2013-08-07 20:43:00,
2013-08-07 16:52:00,82.0,77.0,29.85,NNW,340,0.0,1.0,85,0.00,,,0.00,,2013-08-07 20:52:00,
2013-08-07 17:01:00,82.0,77.0,29.85,NNW,340,0.0,1.0,86,0.00,,,0.00,,2013-08-07 21:01:00,
2013-08-07 17:11:00,82.0,77.0,29.85,NNW,340,0.0,1.0,86,0.00,,,0.00,,2013-08-07 21:11:00,
2013-08-07 17:22:00,82.0,77.0,29.85,NNW,340,0.0,1.0,86,0.00,,,0.00,,2013-08-07 21:22:00,
2013-08-07 17:32:00,82.0,77.0,29.86,NNW,340,0.0,0.0,85,0.00,,,0.00,,2013-08-07 21:32:00,
2013-08-07 17:43:00,82.0,77.0,29.85,NNW,340,0.0,0.0,86,0.00,,,0.00,,2013-08-07 21:43:00,
2013-08-07 17:52:00,81.0,77.0,29.85,NNW,340,0.0,0.0,87,0.00,,,0.00,,2013-08-07 21:52:00,
2013-08-07 18:01:00,81.0,77.0,29.85,NNW,340,0.0,0.0,88,0.00,,,0.00,,2013-08-07 22:01:00,
2013-08-07 18:12:00,80.0,76.0,29.85,NNW,340,0.0,0.0,88,0.00,,,0.00,,2013-08-07 22:12:00,
2013-08-07 18:22:00,80.0,76.0,29.85,NNW,340,0.0,1.0,89,0.00,,,0.00,,2013-08-07 22:22:00,
2013-08-07 18:32:00,80.0,76.0,29.85,NNW,340,0.0,0.0,89,0.00,,,0.00,,2013-08-07 22:32:00,
2013-08-07 18:43:00,80.0,77.0,29.85,NNW,340,0.0,0.0,90,0.00,,,0.00,,2013-08-07 22:43:00,
2013-08-07 18:52:00,80.0,77.0,29.85,NNW,340,0.0,0.0,91,0.00,,,0.00,,2013-08-07 22:52:00,
2013-08-07 19:01:00,79.0,76.0,29.85,NNW,340,0.0,0.0,91,0.00,,,0.00,,2013-08-07 23:01:00,
2013-08-07 19:11:00,79.0,76.0,29.85,NNW,340,0.0,0.0,91,0.00,,,0.00,,2013-08-07 23:11:00,
2013-08-07 19:22:00,79.0,76.0,29.85,NNW,340,0.0,0.0,92,0.00,,,0.00,,2013-08-07 23:22:00,
2013-08-07 19:32:00,79.0,76.0,29.85,NNW,340,0.0,0.0,91,0.00,,,0.00,,2013-08-07 23:32:00,
2013-08-07 19:43:00,79.0,76.0,29.85,NNW,340,0.0,1.0,91,0.00,,,0.00,,2013-08-07 23:43:00,
2013-08-07 19:52:00,79.0,76.0,29.86,NNW,340,0.0,0.0,91,0.00,,,0.00,,2013-08-07 23:52:00,
2013-08-07 20:01:00,78.0,75.0,29.86,NNW,340,0.0,0.0,91,0.00,,,0.00,,2013-08-08 00:01:00,
2013-08-07 20:11:00,78.0,75.0,29.87,NNW,340,0.0,0.0,92,0.00,,,0.00,,2013-08-08 00:11:00,
2013-08-07 20:22:00,78.0,75.0,29.86,NNW,340,0.0,0.0,92,0.00,,,0.00,,2013-08-08 00:22:00,
2013-08-07 20:32:00,78.0,75.0,29.87,NNW,340,0.0,0.0,92,0.00,,,0.00,,2013-08-08 00:32:00,
2013-08-07 20:42:00,78.0,75.0,29.86,NNW,340,0.0,1.0,92,0.00,,,0.00,,2013-08-08 00:42:00,
2013-08-07 20:52:00,78.0,75.0,29.86,NNW,340,0.0,1.0,92,0.00,,,0.00,,2013-08-08 00:52:00,
2013-08-07 21:02:00,78.0,76.0,29.86,NNW,340,0.0,0.0,93,0.00,,,0.00,,2013-08-08 01:02:00,
2013-08-07 21:11:00,77.0,75.0,29.86,NNW,340,0.0,0.0,93,0.00,,,0.00,,2013-08-08 01:11:00,
2013-08-07 21:22:00,77.0,75.0,29.86,NNW,340,0.0,0.0,93,0.00,,,0.00,,2013-08-08 01:22:00,
2013-08-07 21:32:00,77.0,75.0,29.87,NNW,340,0.0,0.0,93,0.00,,,0.00,,2013-08-08 01:32:00,
2013-08-07 21:43:00,77.0,75.0,29.88,NNW,340,0.0,0.0,93,0.00,,,0.00,,2013-08-08 01:43:00,
2013-08-07 21:52:00,77.0,75.0,29.88,NNW,340,0.0,0.0,93,0.00,,,0.00,,2013-08-08 01:52:00,
2013-08-07 22:02:00,76.0,74.0,29.90,NNW,340,0.0,0.0,94,0.00,,,0.00,,2013-08-08 02:02:00,
2013-08-07 22:11:00,76.0,74.0,29.91,NNW,340,0.0,0.0,94,0.00,,,0.00,,2013-08-08 02:11:00,
2013-08-07 22:22:00,76.0,74.0,29.91,NNW,340,0.0,0.0,94,0.00,,,0.00,,2013-08-08 02:22:00,
2013-08-07 22:32:00,75.0,73.0,29.91,NNW,340,0.0,0.0,94,0.00,,,0.00,,2013-08-08 02:32:00,
2013-08-07 22:42:00,75.0,73.0,29.91,NNW,340,0.0,0.0,94,0.00,,,0.00,,2013-08-08 02:42:00,
2013-08-07 22:52:00,75.0,73.0,29.92,NNW,340,0.0,0.0,95,0.00,,,0.00,,2013-08-08 02:52:00,
2013-08-07 23:01:00,75.0,73.0,29.92,NNW,340,0.0,0.0,95,0.00,,,0.00,,2013-08-08 03:01:00,
2013-08-07 23:12:00,74.0,72.0,29.92,NNW,340,0.0,0.0,95,0.00,,,0.00,,2013-08-08 03:12:00,
2013-08-07 23:22:00,74.0,73.0,29.92,North,355,0.0,3.0,96,0.00,,,0.00,,2013-08-08 03:22:00,
2013-08-07 23:32:00,74.0,72.0,29.92,North,5,0.0,2.0,95,0.00,,,0.00,,2013-08-08 03:32:00,
2013-08-07 23:43:00,73.0,71.0,29.91,North,360,0.0,1.0,95,0.00,,,0.00,,2013-08-08 03:43:00,
2013-08-07 23:52:00,73.0,71.0,29.91,North,5,0.0,1.0,95,0.00,,,0.00,,2013-08-08 03:52:00,